Location: Arboyeti
(42.1122°N, 44.6017°E)
Time: 21:21:35
(UTC+00:00)

Cosmos 2151 - Pass Details

Date: 19 April 2021
Orbit: 581 x 600 km, 82.5° (Epoch: 18 May)

Event Time Altitude Azimuth Distance (km) Brightness Sun altitude
Rises 17:34:08 0° 358° (N) 2,859 7.0 -18.6°
Reaches altitude 10° 17:36:27 10° 5° (N) 1,951 6.0 -18.9°
Maximum altitude 17:40:35 44° 78° (ENE) 831 3.4 -19.5°
Enters shadow 17:40:56 43° 93° (E) 844 3.3 -19.6°
